Flight Track Log - Related Links

Times and Time Zones

All times are in EST time to prevent confusion due to time zone crossing. See the SKW4804 flight status page for this flight to view local times or setup timezone preferences in your user account.

Time Position Orientation Groundspeed Altitude Reporting Facility
EST Latitude Longitude Course Direction KTS MPH feet Rate Location/Type
Sat 09:02:55 AM 43.3108 -114.1861 133° Southeast 317 365 12,600  Level Salt Lake Center
Sat 09:03:00 AM 42.8896 -113.9781 160° South  Level FlightAware Approximate
Sat 09:03:56 AM 43.2272 -114.1336 155° Southeast 319 367 15,000  Level Salt Lake Center
Sat 09:04:00 AM 42.8007 -113.9412 164° South  Level FlightAware Approximate
Sat 09:04:56 AM 43.1386 -114.0742 154° Southeast 362 417 17,000  Level Salt Lake Center
Sat 09:05:00 AM 42.7112 -113.9068 164° South  Level FlightAware Approximate
Sat 09:05:57 AM 43.0456 -113.9792 143° Southeast 399 459 19,100  Level Salt Lake Center
Sat 09:06:00 AM 42.6218 -113.8720 164° South  Level FlightAware Approximate
Sat 09:06:57 AM 42.9592 -113.8947 144° Southeast 412 474 21,300  Level Salt Lake Center
Sat 09:07:00 AM 42.5400 -113.8180 138° Southeast  Level FlightAware Approximate
Sat 09:07:58 AM 42.8625 -113.7972 144° Southeast 421 484 23,200  Level Salt Lake Center
Sat 09:08:00 AM 42.4714 -113.7330 133° Southeast  Level FlightAware Approximate
Sat 09:08:59 AM 42.7469 -113.6864 145° Southeast 453 521 24,800  Level Salt Lake Center
Sat 09:09:59 AM 42.6533 -113.5992 146° Southeast 471 542 26,000 1,091 Climbing Salt Lake Center
Sat 09:11:00 AM 42.5422 -113.4922 145° Southeast 487 560 27,000 496 Climbing Salt Lake Center
Sat 09:12:00 AM 42.4258 -113.3808 145° Southeast 506 582 27,000  Level Salt Lake Center
Sat 09:13:01 AM 42.3083 -113.2694 145° Southeast 516 594 27,000  Level Salt Lake Center
Sat 09:14:01 AM 42.1664 -113.1372 145° Southeast 519 597 27,000  Level Salt Lake Center
Sat 09:15:02 AM 42.0494 -113.0283 145° Southeast 514 592 27,000  Level Salt Lake Center
Sat 09:16:03 AM 41.9344 -112.9192 145° Southeast 510 587 27,000 -1,438 Level Salt Lake Center
Sat 09:17:03 AM 41.8219 -112.8142 145° Southeast 497 572 24,100 -2,926 Descending Salt Lake Center
Sat 09:18:04 AM 41.7217 -112.7233 146° Southeast 443 510 21,100 -2,732 Descending Salt Lake Center
Sat 09:18:55 AM 41.6531 -112.6342 136° Southeast 395 455 19,000 -2,500 Descending Salt Lake Center
Sat 09:19:04 AM 41.6350 -112.6239 157° South 416 479 18,600 -2,291 Descending Salt Lake Center
Sat 09:19:50 AM 41.5792 -112.5386 131° Southeast 382 440 16,900 -2,066 Descending Salt Lake Center
Sat 09:20:05 AM 41.5589 -112.5261 155° Southeast 382 440 16,500 -1,895 Descending Salt Lake Center
Sat 09:21:06 AM 41.4794 -112.4281 137° Southeast 389 448 14,500 -2,040 Descending Salt Lake Center
Sat 09:21:45 AM 41.4286 -112.3578 134° Southeast 388 447 13,100 -1,967 Descending Salt Lake Center
Sat 09:22:07 AM 41.4011 -112.3306 143° Southeast 385 443 12,500 -1,964 Descending Salt Lake Center
Sat 09:22:40 AM 41.3561 -112.2708 135° Southeast 377 434 11,300 -1,800 Descending Salt Lake Center
Sat 09:23:07 AM 41.3258 -112.2372 140° Southeast 373 429 10,700 -846 Descending Salt Lake Center
Sat 09:23:58 AM 41.2600 -112.1750 145° Southeast 293 337 10,200 -484 Descending Salt Lake Center
Sat 09:24:09 AM 41.2519 -112.1731 170° South 314 361 10,200 -590 Level Salt Lake Center
Sat 09:24:59 AM 41.1897 -112.1219 148° Southeast 289 333 9,600 -600 Descending Salt Lake Center
Sat 09:25:09 AM 41.1836 -112.1181 154° Southeast 291 335 9,600 -735 Level Salt Lake Center
Sat 09:25:48 AM 41.1333 -112.0756 148° Southeast 290 334 9,000 -600 Descending Salt Lake Center
Sat 09:26:09 AM 41.1167 -112.0631 151° Southeast 286 329 9,000 -545 Level Salt Lake Center
Sat 09:26:54 AM 41.0617 -112.0175 148° Southeast 272 313 8,400 -787 Descending Salt Lake Center
Sat 09:27:10 AM 41.0531 -112.0111 151° Southeast 273 314 8,200 -885 Descending Salt Lake Center
Sat 09:27:55 AM 40.9911 -111.9989 172° South 256 295 7,500 -885 Descending Salt Lake Center
Sat 09:28:11 AM 40.9697 -111.9961 174° South 261 300 7,300 -787 Descending Salt Lake Center
Sat 09:28:56 AM 40.9294 -111.9914 175° South 214 246 6,700 -1,000 Descending Salt Lake Center
Sat 09:29:11 AM 40.9114 -111.9883 173° South 214 246 6,300 -1,100 Descending Salt Lake Center
Sat 09:29:56 AM 40.8722 -111.9853 177° South 184 212 5,600 -885 Descending Salt Lake Center
Sat 09:30:12 AM 40.8603 -111.9833 173° South 188 216 5,400 -885 Descending Salt Lake Center
Sat 09:30:57 AM 40.8303 -111.9797 175° South 140 161 4,700 -885 Descending Salt Lake Center
Sat 09:31:13 AM 40.8211 -111.9783 173° South 146 168 4,500 -750 Descending Salt Lake Center

Login

Don't have an account? Register now (free) for customized features, flight alerts, and more!